Home   Weather   Płock   Past weeks

Flag for Poland Past Weather in Płock, Poland — Yesterday and Last 2 Weeks

50 °F


Feels Like: 49 °F
Forecast: 40 / 49 °F
Wind: 3 mph from Northwest

Location: Plock

Current Time: Oct 25, 2016 at 2:08:43 PM

Latest Report: Oct 25, 2016 at 1:00 PM

Visibility: 5 mi

Pressure: 30.04 "Hg

Humidity: 96%

Dew Point: 49 °F

Location of PłockLocation

Past Weather in Płock — Graph


Płock Temperature Yesterday

Maximum temperature yesterday: 49 °F (at 4:00 PM)
Minimum temperature yesterday: 47 °F (at 5:00 AM)
Average temperature yesterday: 48 °F

High & Low Weather Summary for the Past Weeks

High51 °F (Oct 19, 2:00 PM)100% (Oct 22, 9:00 AM)30.51 "Hg (Oct 22, 9:00 AM)
Low33 °F (Oct 14, 7:00 AM)54% (Oct 14, 1:00 PM)29.95 "Hg (Oct 22, 4:00 AM)
Average44 °F88%30.18 "Hg
* Reported Oct 10 12:00 PM — Oct 25 12:00 PM, Płock, Weather by CustomWeather, © 2016

Note: Actual official high and low records may vary slightly from our data, if they occured in-between our weather recording intervals... More about our weather records


Płock Weather History for the Previous 24 Hours

Scroll right to see more
Time TempWeatherWind HumidityBarometerVisibility
12:00 PM
Tue, Oct 25
50 °FLight rain. Cloudy.3 mph97%30.03 "Hg2 mi
11:00 AM50 °FLight rain. Cloudy.2 mph98%30.02 "Hg2 mi
10:00 AM51 °FRain. Cloudy.2 mph98%30.01 "Hg1 mi
9:00 AM50 °FLight rain. Cloudy.1 mph98%30.00 "Hg1 mi
8:00 AM50 °FRain. Cloudy.1 mph98%29.99 "Hg1 mi
7:00 AM49 °FLight rain. Overcast.1 mph98%29.98 "Hg1 mi
6:00 AM49 °FLight rain. Overcast.1 mph98%29.99 "Hg1 mi
5:00 AM49 °FFog.2 mph98%29.99 "Hg1 mi
4:00 AM49 °FRain showers. Overcast.2 mph98%30.00 "Hg1 mi
3:00 AM49 °FRain. Overcast.2 mph98%30.02 "Hg1 mi
2:00 AM49 °FLight rain. Overcast.3 mph97%30.04 "Hg1 mi
1:00 AM48 °FRain. Overcast.3 mph97%30.05 "Hg1 mi
12:00 AM48 °FLight rain. Overcast.2 mph97%30.08 "Hg1 mi
11:00 PM
Mon, Oct 24
48 °FLight rain. Overcast.3 mph97%30.08 "Hg2 mi
10:00 PM48 °FLight rain. Overcast.2 mph96%30.09 "Hg2 mi
9:00 PM48 °FLight rain. Overcast.2 mph95%30.10 "Hg2 mi
8:00 PM48 °FFog.3 mph95%30.09 "Hg2 mi
7:00 PM48 °FFog.2 mph95%30.11 "Hg2 mi
6:00 PM49 °FFog.3 mph94%30.11 "Hg3 mi
5:00 PM49 °FFog.3 mph92%30.11 "Hg4 mi
4:00 PM49 °FFog.5 mph91%30.10 "Hg5 mi
3:00 PM49 °FFog.3 mph91%30.11 "Hg4 mi
Weather by CustomWeather, © 2016

See weather overviewHow to use our weather pages